Orbital Elements at Epoch 2459000.5 (2020-May-31.0) TDB
Reference: JPL 28 (heliocentric ecliptic J2000)
Element | Value | Uncertainty (1-sigma) | Units |
e | .07593931343262238 | 4.1645e-08 | |
a | 3.063176853962482 | 2.0234e-08 | au |
q | 2.830561306749871 | 1.3032e-07 | au |
i | 11.78451532880472 | 4.5445e-06 | deg |
node | 86.84106456678578 | 2.2183e-05 | deg |
peri | 339.3300121813993 | 3.8686e-05 | deg |
M | 67.3873774133217 | 3.0343e-05 | deg |
tp | 2458633.950536243649 (2019-May-30.45053624) | 0.00016536 | TDB |
period | 1958.197692468735 5.36 | 1.9402e-05 5.312e-08 | d yr |
n | .1838425207958148 | 1.8216e-09 | deg/d |
Q | 3.295792401175093 | 2.177e-08 | au |
|
| | Orbit Determination Parameters
Additional Information
|